Weather History for Pagosa Springs, CO

Change the Weather History Date:

Friday, July 5, 2013

  Actual Average (KDRO) Record (KDRO)
Temperature  
Mean Temperature 69 °F 67 °F  
Max Temperature 84 °F 86 °F 102 °F (1989)
Min Temperature 54 °F 49 °F 39 °F (1978)
Degree Days  
Heating Degree Days 0 1  
Month to date heating degree days 5  
Since 1 June heating degree days 120  
Since 1 July heating degree days 5  
Cooling Degree Days 4 3  
Month to date cooling degree days 13  
Year to date cooling degree days 42  
Since 1 June cooling degree days 41  
Growing Degree Days 19 (Base 50)    
Moisture  
Dew Point 49 °F    
Average Humidity 61    
Maximum Humidity 90    
Minimum Humidity 20    
Precipitation  
Precipitation 0.00 in 0.03 in 1.00 in (1970)
Month to date precipitation 0.14  
Year to date precipitation 6.21  
Sea Level Pressure  
Sea Level Pressure 30.20 in    
Wind  
Wind Speed 2 mph (WNW)    
Max Wind Speed 15 mph    
Max Gust Speed 40 mph    
Visibility 10 miles    
Events Rain , Thunderstorm    
T = Trace of Precipitation, MM = Missing Value Source: NWS Daily Summary

Daily Weather History Graph

Daily Weather History Graph

Search for Another Location

Airport:

Trip Planner

Search our weather history database for the weather conditions in past years. The results will help you decide how hot, cold, wet, or windy it might be!

Date:

Astronomy

Jul. 05, 2013 Rise Set
Actual Time 5:53 AM MDT 8:31 PM MDT
Civil Twilight 5:22 AM MDT 9:02 PM MDT
Nautical Twilight 4:44 AM MDT 9:40 PM MDT
Astronomical Twilight 4:01 AM MDT 10:23 PM MDT
Moon 3:53 AM MDT (7/5) 6:30 PM MDT (7/5)
Length of Visible Light 15h 39m
Length of Day
14h 38m
Waning Crescent, 6% of the Moon is Illuminated
Jul 5
Waning Crescent
Jul 8
New
Jul 15
First Quarter
Jul 22
Full
Jul 29
Last Quarter

Hourly Weather History & Observations

Time (MDT) Temp. Dew Point Humidity Pressure Visibility Wind Dir Wind Speed Gust Speed Precip Events Conditions
12:15 AM 63.3 °F 47.8 °F 57% 30.21 in 10.0 mi Calm Calm - N/A   Mostly Cloudy
12:35 AM 63.5 °F 48.2 °F 57% 30.22 in 10.0 mi Calm Calm - N/A   Overcast
12:55 AM 62.8 °F 49.8 °F 63% 30.22 in 10.0 mi East 3.5 mph - N/A   Overcast
1:15 AM 61.7 °F 50.4 °F 66% 30.21 in 10.0 mi Calm Calm - N/A   Scattered Clouds
1:35 AM 61.0 °F 49.8 °F 67% 30.21 in 10.0 mi WNW 4.6 mph - N/A   Clear
1:55 AM 60.6 °F 50.0 °F 68% 30.21 in 10.0 mi West 3.5 mph - N/A   Clear
2:15 AM 57.7 °F 48.2 °F 70% 30.20 in 10.0 mi NNE 4.6 mph - N/A   Clear
2:35 AM 59.7 °F 46.6 °F 62% 30.21 in 10.0 mi Calm Calm - N/A   Clear
2:55 AM 61.2 °F 47.5 °F 61% 30.20 in 10.0 mi Calm Calm - N/A   Clear
3:15 AM 59.0 °F 47.8 °F 66% 30.21 in 10.0 mi NE 3.5 mph - N/A   Clear
3:35 AM 60.3 °F 48.6 °F 65% 30.22 in 10.0 mi SSW 4.6 mph - N/A   Scattered Clouds
3:55 AM 58.3 °F 49.1 °F 71% 30.22 in 10.0 mi Calm Calm - N/A   Scattered Clouds
4:15 AM 58.8 °F 49.8 °F 72% 30.22 in 10.0 mi ENE 3.5 mph - N/A   Scattered Clouds
4:35 AM 57.6 °F 48.4 °F 71% 30.22 in 10.0 mi Calm Calm - N/A   Scattered Clouds
4:55 AM 58.1 °F 48.9 °F 71% 30.22 in 10.0 mi Calm Calm - N/A   Mostly Cloudy
5:15 AM 58.6 °F 49.1 °F 71% 30.22 in 10.0 mi Calm Calm - N/A   Mostly Cloudy
5:35 AM 57.6 °F 49.1 °F 73% 30.21 in 10.0 mi Calm Calm - N/A   Scattered Clouds
5:55 AM 56.5 °F 47.8 °F 73% 30.21 in 10.0 mi NE 3.5 mph - N/A   Clear
6:15 AM 54.7 °F 46.9 °F 75% 30.22 in 10.0 mi Calm Calm - N/A   Clear
6:35 AM 55.2 °F 47.5 °F 75% 30.22 in 10.0 mi Calm Calm - N/A   Clear
6:55 AM 55.0 °F 48.9 °F 80% 30.23 in 10.0 mi Calm Calm - N/A   Clear
7:15 AM 56.3 °F 48.7 °F 76% 30.23 in 10.0 mi Calm Calm - N/A   Clear
7:35 AM 58.5 °F 49.6 °F 72% 30.23 in 10.0 mi Calm Calm - N/A   Clear
7:55 AM 61.0 °F 47.7 °F 62% 30.23 in 10.0 mi Calm Calm - N/A   Clear
8:15 AM 63.5 °F 48.6 °F 58% 30.23 in 10.0 mi Calm Calm - N/A   Clear
8:35 AM 66.0 °F 46.8 °F 50% 30.23 in 10.0 mi Calm Calm - N/A   Clear
8:55 AM 67.5 °F 43.9 °F 43% 30.23 in 10.0 mi SW 3.5 mph - N/A   Clear
9:15 AM 68.5 °F 43.7 °F 41% 30.23 in 10.0 mi WSW 3.5 mph - N/A   Clear
9:35 AM 70.0 °F 42.3 °F 37% 30.23 in 10.0 mi Calm Calm - N/A   Clear
9:55 AM 71.2 °F 41.4 °F 34% 30.22 in 10.0 mi SSW 4.6 mph - N/A   Clear
10:15 AM 72.0 °F 40.8 °F 32% 30.22 in 10.0 mi Calm Calm - N/A   Clear
10:35 AM 72.5 °F 42.1 °F 33% 30.22 in 10.0 mi South 4.6 mph - N/A   Clear
11:15 AM 73.4 °F 41.9 °F 32% 30.21 in 10.0 mi SSW 4.6 mph - N/A   Clear
12:15 PM 78.6 °F 41.2 °F 26% 30.19 in 10.0 mi WSW 8.1 mph - N/A   Clear
12:35 PM 78.4 °F 40.3 °F 26% 30.18 in 10.0 mi South 3.5 mph - N/A   Clear
12:55 PM 78.8 °F 39.9 °F 25% 30.18 in 10.0 mi West 3.5 mph - N/A   Clear
1:35 PM 81.9 °F 38.7 °F 21% 30.15 in 10.0 mi West 6.9 mph - N/A   Clear
1:55 PM 82.8 °F 38.7 °F 21% 30.13 in 10.0 mi SW 4.6 mph - N/A Thunderstorm Thunderstorm
2:15 PM 84.0 °F 38.3 °F 20% 30.12 in 10.0 mi WSW 15.0 mph 20.7 mph N/A Thunderstorm Thunderstorm
2:35 PM 81.0 °F 37.8 °F 21% 30.11 in 10.0 mi WSW 9.2 mph - N/A Thunderstorm Thunderstorm
2:55 PM 79.5 °F 43.0 °F 27% 30.14 in 10.0 mi WNW 11.5 mph 40.3 mph N/A Rain , Thunderstorm Thunderstorms and Rain
3:15 PM 61.5 °F 50.5 °F 67% 30.17 in 2.0 mi North 5.8 mph 21.9 mph N/A Rain , Thunderstorm Light Thunderstorms and Rain
3:55 PM 63.5 °F 50.7 °F 63% 30.18 in 10.0 mi NNW 3.5 mph - N/A Thunderstorm Unknown
4:15 PM 61.3 °F 53.8 °F 76% 30.19 in 10.0 mi East 8.1 mph - N/A Rain , Thunderstorm Light Thunderstorms and Rain
4:35 PM 61.0 °F 52.3 °F 73% 30.18 in 10.0 mi NE 3.5 mph - N/A   Light Drizzle
4:55 PM 61.5 °F 52.3 °F 72% 30.17 in 10.0 mi NE 3.5 mph - N/A Thunderstorm Thunderstorm
5:35 PM 64.8 °F 52.9 °F 65% 30.14 in 10.0 mi NE 5.8 mph - N/A   Scattered Clouds
5:55 PM 65.1 °F 52.0 °F 62% 30.14 in 10.0 mi Calm Calm - N/A   Clear
6:15 PM 65.7 °F 53.8 °F 65% 30.14 in 10.0 mi Calm Calm - N/A   Clear
6:35 PM 66.7 °F 53.1 °F 61% 30.15 in 10.0 mi NW 10.4 mph 16.1 mph N/A   Scattered Clouds
6:55 PM 67.1 °F 51.1 °F 56% 30.15 in 10.0 mi West 8.1 mph - N/A   Mostly Cloudy
7:15 PM 66.6 °F 50.5 °F 56% 30.15 in 10.0 mi West 3.5 mph - N/A   Scattered Clouds
7:35 PM 64.2 °F 54.7 °F 71% 30.16 in 10.0 mi Calm Calm - N/A   Mostly Cloudy
7:55 PM 64.4 °F 54.0 °F 69% 30.16 in 10.0 mi ENE 3.5 mph - N/A   Scattered Clouds
8:15 PM 63.7 °F 53.4 °F 69% 30.17 in 10.0 mi ENE 4.6 mph - N/A   Scattered Clouds
8:35 PM 62.8 °F 55.0 °F 76% 30.16 in 10.0 mi NNE 4.6 mph - N/A   Clear
8:55 PM 61.9 °F 54.5 °F 77% 30.17 in 10.0 mi Calm Calm - N/A   Clear
9:15 PM 59.9 °F 55.6 °F 86% 30.17 in 10.0 mi Calm Calm - N/A   Clear
9:35 PM 61.9 °F 54.3 °F 76% 30.18 in 10.0 mi Calm Calm - N/A   Clear
9:55 PM 58.1 °F 54.7 °F 88% 30.19 in 10.0 mi Calm Calm - N/A   Clear
10:15 PM 58.1 °F 54.5 °F 88% 30.20 in 10.0 mi Calm Calm - N/A   Clear
10:35 PM 60.1 °F 53.2 °F 78% 30.21 in 10.0 mi SE 4.6 mph - N/A Thunderstorm Thunderstorm
10:55 PM 57.2 °F 54.0 °F 89% 30.22 in 10.0 mi Calm Calm - N/A   Scattered Clouds
11:15 PM 57.4 °F 54.0 °F 88% 30.22 in 10.0 mi Calm Calm - N/A   Mostly Cloudy
11:35 PM 57.7 °F 54.9 °F 90% 30.23 in 10.0 mi Calm Calm - N/A   Mostly Cloudy
11:55 PM 57.6 °F 54.5 °F 90% 30.25 in 10.0 mi Calm Calm - N/A   Scattered Clouds